TimeCST,TemperatureF,Dew PointF,Humidity,Sea Level PressureIn,VisibilityMPH,Wind Direction,Wind SpeedMPH,Gust SpeedMPH,PrecipitationIn,Events,Conditions,WindDirDegrees,DateUTC
12:53 AM,39.9,25.0,55,30.05,10.0,North,15.0,-,N/A,,Overcast,10,2011-11-09 06:53:00
1:53 AM,39.9,26.1,58,30.05,10.0,NNE,13.8,-,N/A,,Overcast,20,2011-11-09 07:53:00
2:53 AM,39.9,27.0,60,30.03,10.0,North,12.7,-,0.00,,Overcast,360,2011-11-09 08:53:00
3:53 AM,39.2,24.8,56,30.02,10.0,North,13.8,-,N/A,,Overcast,350,2011-11-09 09:53:00
4:53 AM,39.2,24.8,56,30.03,10.0,North,13.8,-,N/A,,Overcast,350,2011-11-09 10:53:00
5:53 AM,39.2,24.8,56,30.02,10.0,North,16.1,-,N/A,,Overcast,350,2011-11-09 11:53:00
6:53 AM,37.9,24.1,57,30.01,10.0,NNW,16.1,-,N/A,,Overcast,340,2011-11-09 12:53:00
7:53 AM,37.4,23.0,56,30.02,10.0,NNW,16.1,-,N/A,,Clear,340,2011-11-09 13:53:00
8:53 AM,39.0,21.9,50,30.04,10.0,NNW,16.1,-,N/A,,Clear,330,2011-11-09 14:53:00
9:53 AM,41.0,21.9,47,30.04,10.0,NNW,16.1,-,N/A,,Clear,330,2011-11-09 15:53:00
10:53 AM,43.0,21.9,43,30.04,10.0,NNW,21.9,26.5,N/A,,Clear,330,2011-11-09 16:53:00
11:53 AM,46.9,23.0,39,30.03,10.0,NW,18.4,27.6,N/A,,Clear,320,2011-11-09 17:53:00
12:53 PM,48.9,21.9,35,30.02,10.0,NW,20.7,-,N/A,,Clear,310,2011-11-09 18:53:00
1:53 PM,48.0,23.0,37,30.02,10.0,NW,21.9,29.9,N/A,,Clear,320,2011-11-09 19:53:00
2:53 PM,48.0,21.0,34,30.03,10.0,NW,29.9,36.8,N/A,,Clear,310,2011-11-09 20:53:00
3:53 PM,46.0,23.0,40,30.04,10.0,WNW,23.0,29.9,N/A,,Clear,300,2011-11-09 21:53:00
4:53 PM,42.1,21.0,43,30.06,10.0,WNW,23.0,27.6,N/A,,Clear,300,2011-11-09 22:53:00
5:53 PM,39.0,19.9,46,30.09,10.0,WNW,17.3,24.2,N/A,,Clear,300,2011-11-09 23:53:00
6:53 PM,36.0,19.0,50,30.09,10.0,WNW,11.5,-,N/A,,Clear,290,2011-11-10 00:53:00
7:53 PM,37.9,19.9,48,30.08,10.0,WNW,20.7,27.6,N/A,,Partly Cloudy,300,2011-11-10 01:53:00
8:53 PM,36.0,19.9,52,30.09,10.0,WNW,17.3,26.5,N/A,,Clear,300,2011-11-10 02:53:00
9:53 PM,35.1,19.9,54,30.09,10.0,WNW,15.0,-,N/A,,Mostly Cloudy,290,2011-11-10 03:53:00
10:53 PM,36.0,19.9,52,30.07,10.0,West,13.8,-,N/A,,Overcast,280,2011-11-10 04:53:00
11:53 PM,37.0,21.9,54,30.06,10.0,NW,24.2,32.2,N/A,,Mostly Cloudy,310,2011-11-10 05:53:00